Kilmarnock, Virginia, United States (22482)
Lat: 37.71N, Lon: 76.38W
Wx Zone: VAZ078
Local Info
Past Weather Observations for Friday, January 30, 2015

NOTE: This archive is for the closest National Weather Service station to Kilmarnock. Information may differ from the station used for current weather conditions.

Click here for Long-term Archive

Time Weather Temperature Dewpoint Humidity Pressure Winds Precip Visibility
23:55
Clear
28°F / -2°C 3°F / -16°C 34% 30.27 in
(1025 mb)
NW 9.2 mph
(NW 15 kph)
- 10SM
23:35
Clear
28°F / -2°C 3°F / -16°C 34% 30.27 in
(1025 mb)
NW 8.1 mph
(NW 13 kph)
- 10SM
23:15
Clear
28°F / -2°C 3°F / -16°C 34% 30.27 in
(1025 mb)
NW 13.8 mph
(NW 22 kph)
- 10SM
22:55
Clear
30°F / -1°C 3°F / -16°C 31% 30.27 in
(1025 mb)
NW 10.4 mph
(NW 17 kph)
- 10SM
21:35
Clear
32°F / 0°C 3°F / -16°C 29% 30.24 in
(1024 mb)
NW 13.8 mph
(NW 22 kph)
- 10SM
21:15
Clear
32°F / 0°C 7°F / -14°C 34% 30.24 in
(1024 mb)
NW 8.1 mph
(NW 13 kph)
- 10SM
20:55
Clear
32°F / 0°C 7°F / -14°C 34% 30.24 in
(1024 mb)
NW 13.8 mph
(NW 22 kph)
- 10SM
18:55
Clear
36°F / 2°C 7°F / -14°C 30% 30.18 in
(1022 mb)
NW 11.5 mph
(NW 19 kph)
- 10SM
18:35
Clear
37°F / 3°C 7°F / -14°C 28% 30.18 in
(1022 mb)
NW 9.2 mph
(NW 15 kph)
- 10SM
18:15
Clear
37°F / 3°C 9°F / -13°C 30% 30.15 in
(1021 mb)
NW 11.5 mph
(NW 19 kph)
- 10SM
17:55
Clear
37°F / 3°C 7°F / -14°C 28% 30.15 in
(1021 mb)
NW 11.5 mph
(NW 19 kph)
- 10SM
17:35
Partly Cloudy
39°F / 4°C 7°F / -14°C 26% 30.15 in
(1021 mb)
NW 12.7 mph
(NW 20 kph)
- 10SM
17:15
Clear
39°F / 4°C 5°F / -15°C 24% 30.12 in
(1020 mb)
NW 13.8 mph
(NW 22 kph)
- 10SM
16:55
Clear
41°F / 5°C 7°F / -14°C 24% 30.12 in
(1020 mb)
NW 10.4 mph
(NW 17 kph)
- 10SM
16:35
Clear
41°F / 5°C 9°F / -13°C 26% 30.09 in
(1019 mb)
NW 11.5 mph
(NW 19 kph)
- 10SM
16:15
Partly Cloudy
43°F / 6°C 12°F / -11°C 29% 30.09 in
(1019 mb)
NNW 15 mph
(NNW 24 kph)
- 10SM
15:55
Partly Cloudy
43°F / 6°C 10°F / -12°C 26% 30.09 in
(1019 mb)
NW 11.5 mph
(NW 19 kph)
- 10SM
15:35
Partly Cloudy
43°F / 6°C 16°F / -9°C 34% 30.06 in
(1018 mb)
NW 10.4 mph
(NW 17 kph)
- 10SM
15:15
Mostly Cloudy
43°F / 6°C 16°F / -9°C 34% 30.06 in
(1018 mb)
NW 12.7 mph
(NW 20 kph)
- 10SM
14:55
Mostly Cloudy
45°F / 7°C 12°F / -11°C 27% 30.06 in
(1018 mb)
NW 9.2 mph
(NW 15 kph)
- 10SM
14:35
Mostly Cloudy
45°F / 7°C 12°F / -11°C 27% 30.04 in
(1017 mb)
NW 10.4 mph
(NW 17 kph)
- 10SM
14:15
Overcast
45°F / 7°C 14°F / -10°C 29% 30.04 in
(1017 mb)
NW 13.8 mph
(NW 22 kph)
- 10SM
13:55
Overcast
43°F / 6°C 21°F / -6°C 42% 30.04 in
(1017 mb)
NW 9.2 mph
(NW 15 kph)
- 10SM
13:35
Overcast
43°F / 6°C 23°F / -5°C 46% 30.04 in
(1017 mb)
NNW 9.2 mph
(NNW 15 kph)
- 10SM
13:15
Overcast
43°F / 6°C 23°F / -5°C 46% 30.04 in
(1017 mb)
NNW 10.4 mph
(NNW 17 kph)
- 10SM
12:55
Overcast
46°F / 8°C 18°F / -8°C 32% 30.04 in
(1017 mb)
WNW 17.3 mph
(WNW 28 kph)
- 10SM
12:35
Overcast
45°F / 7°C 18°F / -8°C 34% 30.04 in
(1017 mb)
WNW 12.7 mph
(WNW 20 kph)
- 10SM
12:15
Overcast
45°F / 7°C 19°F / -7°C 37% 30.04 in
(1017 mb)
NW 12.7 mph
(NW 20 kph)
- 10SM
11:55
Overcast
46°F / 8°C 19°F / -7°C 34% 30.04 in
(1017 mb)
NW 11.5 mph
(NW 19 kph)
- 10SM
11:35
Overcast
46°F / 8°C 18°F / -8°C 32% 30.06 in
(1018 mb)
NW 15 mph
(NW 24 kph)
- 10SM
11:15
Overcast
46°F / 8°C 18°F / -8°C 32% 30.06 in
(1018 mb)
NNW 15 mph
(NNW 24 kph)
- 10SM
10:55
Overcast
46°F / 8°C 18°F / -8°C 32% 30.04 in
(1017 mb)
NW 15 mph
(NW 24 kph)
- 10SM
10:35
Overcast
45°F / 7°C 19°F / -7°C 37% 30.04 in
(1017 mb)
NW 6.9 mph
(NW 11 kph)
- 10SM
10:15
Overcast
45°F / 7°C 19°F / -7°C 37% 30.04 in
(1017 mb)
NW 10.4 mph
(NW 17 kph)
- 10SM
09:55
Overcast
45°F / 7°C 19°F / -7°C 37% 30.04 in
(1017 mb)
NNW 9.2 mph
(NNW 15 kph)
- 10SM
09:35
Overcast
45°F / 7°C 21°F / -6°C 39% 30.04 in
(1017 mb)
NNW 12.7 mph
(NNW 20 kph)
- 10SM
09:15
Overcast
45°F / 7°C 25°F / -4°C 46% 30.04 in
(1017 mb)
NNW 10.4 mph
(NNW 17 kph)
- 10SM
08:55
Overcast
43°F / 6°C 27°F / -3°C 53% 30.04 in
(1017 mb)
NW 6.9 mph
(NW 11 kph)
- 10SM
08:35
Overcast
43°F / 6°C 27°F / -3°C 53% 30.01 in
(1016 mb)
NW 8.1 mph
(NW 13 kph)
- 10SM
08:15
Overcast
43°F / 6°C 27°F / -3°C 53% 30.01 in
(1016 mb)
NNW 4.6 mph
(NNW 7 kph)
- 10SM
07:55
Overcast
43°F / 6°C 27°F / -3°C 53% 30.01 in
(1016 mb)
NNW 3.5 mph
(NNW 6 kph)
- 10SM
07:35
Overcast
41°F / 5°C 27°F / -3°C 57% 29.98 in
(1015 mb)
Calm - 10SM
07:15
Overcast
41°F / 5°C 27°F / -3°C 57% 29.98 in
(1015 mb)
Calm - 10SM
06:55
Overcast
41°F / 5°C 27°F / -3°C 57% 29.98 in
(1015 mb)
Calm - 10SM
06:35
Overcast
43°F / 6°C 27°F / -3°C 53% 29.98 in
(1015 mb)
Calm - 10SM
06:15
Overcast
43°F / 6°C 25°F / -4°C 49% 29.98 in
(1015 mb)
Calm - 10SM
05:55
Overcast
43°F / 6°C 25°F / -4°C 49% 29.95 in
(1014 mb)
Calm - 10SM
05:35
Overcast
45°F / 7°C 25°F / -4°C 46% 29.95 in
(1014 mb)
Calm - 10SM
05:15
Overcast
45°F / 7°C 25°F / -4°C 46% 29.95 in
(1014 mb)
NW 4.6 mph
(NW 7 kph)
- 10SM
04:55
Overcast
45°F / 7°C 25°F / -4°C 46% 29.95 in
(1014 mb)
W 6.9 mph
(W 11 kph)
- 10SM
04:35
Overcast
45°F / 7°C 25°F / -4°C 46% 29.95 in
(1014 mb)
W 8.1 mph
(W 13 kph)
- 10SM
04:15
Overcast
45°F / 7°C 25°F / -4°C 46% 29.92 in
(1013 mb)
SSW 6.9 mph
(SSW 11 kph)
- 10SM
03:55
Overcast
45°F / 7°C 23°F / -5°C 42% 29.92 in
(1013 mb)
SW 6.9 mph
(SW 11 kph)
- 10SM
03:35
Overcast
45°F / 7°C 23°F / -5°C 42% 29.95 in
(1014 mb)
SW 4.6 mph
(SW 7 kph)
- 10SM
03:15
Overcast
45°F / 7°C 21°F / -6°C 39% 29.95 in
(1014 mb)
SW 5.8 mph
(SW 9 kph)
- 10SM
02:55
Overcast
43°F / 6°C 21°F / -6°C 42% 29.95 in
(1014 mb)
SW 8.1 mph
(SW 13 kph)
- 10SM
02:35
Overcast
43°F / 6°C 21°F / -6°C 42% 29.95 in
(1014 mb)
SW 3.5 mph
(SW 6 kph)
- 10SM
02:15
Overcast
43°F / 6°C 21°F / -6°C 42% 29.95 in
(1014 mb)
SW 5.8 mph
(SW 9 kph)
- 10SM
01:55
Overcast
43°F / 6°C 21°F / -6°C 42% 29.98 in
(1015 mb)
SW 4.6 mph
(SW 7 kph)
- 10SM
01:35
Overcast
43°F / 6°C 19°F / -7°C 39% 29.98 in
(1015 mb)
SW 4.6 mph
(SW 7 kph)
- 10SM
01:15
Overcast
43°F / 6°C 19°F / -7°C 39% 29.98 in
(1015 mb)
S 4.6 mph
(S 7 kph)
- 10SM
00:55
Overcast
43°F / 6°C 19°F / -7°C 39% 29.98 in
(1015 mb)
S 5.8 mph
(S 9 kph)
- 10SM
00:35
Overcast
45°F / 7°C 18°F / -8°C 34% 29.98 in
(1015 mb)
S 6.9 mph
(S 11 kph)
- 10SM
00:15
Overcast
45°F / 7°C 18°F / -8°C 34% 30.01 in
(1016 mb)
S 8.1 mph
(S 13 kph)
- 10SM
Time Weather Temperature Dewpoint Humidity Pressure Winds Precip Visibility


Weather for websites

WeatherForYou.com, LLC is not responsible for any damages or problems caused by this service. Current weather conditions are obtained from the closest station including government and personal stations which may have varying degrees of accuracy. Weather forecasts are derived from the NOAA NDFD. Like all things, this site belongs to Jesus Christ... He just trusts me to maintain it. If you have any questions or comments email webmaster@weatherforyou.com

Copyright © 2015, WeatherForYou.com LLC. All rights reserved.